Location: Oak Ridge
(36.0100°N, 84.2700°W)
Time: 17:01:38
(UTC-05:00)

Tiangong 2 - Visible Passes

Search period start: 19 February 2018 00:00
Search period end: 01 March 2018 00:00
Orbit: 384 x 388 km, 42.8° (Epoch: 19 February)

Date Brightness Start Highest point End Pass type
(mag) Time Alt. Az. Time Alt. Az. Time Alt. Az.
19 Feb 2.1 19:21:13 10° NW 19:24:07 32° NNE 19:25:22 23° ENE visible
20 Feb 1.4 19:58:55 10° WNW 20:01:40 63° NW 20:01:40 63° NW visible
21 Feb 1.5 19:00:00 10° NW 19:03:05 47° NNE 19:05:47 13° E visible
21 Feb 4.0 20:37:01 10° W 20:38:04 17° W 20:38:04 17° W visible
22 Feb 1.7 19:37:48 10° WNW 19:40:54 52° SSW 19:42:18 27° SSE visible
23 Feb 3.8 20:16:40 10° WSW 20:18:23 14° SW 20:18:57 13° SSW visible
24 Feb 3.1 19:16:52 10° W 19:19:34 26° SW 19:22:17 10° SSE visible
26 Feb 4.1 18:56:29 10° WSW 18:58:08 13° SW 18:59:47 10° S visible
